| time (UTC) | temp F | wind direction | speed knots | gust knots | rain 1hr in | rain 24hr in | rain mn in | humidity % | barometer mb |
| 20260503183021 | 63 | 185 | 5.2 | 10.4 | 0.00 | 0.00 | 0.00 | 76 | 1014.4 |
| 20260503181526 | 63 | 175 | 6.1 | 10.4 | 0.00 | 0.00 | 0.00 | 75 | 1014.3 |
| 20260503180026 | 63 | 204 | 5.2 | 11.3 | 0.00 | 0.00 | 0.00 | 75 | 1014.3 |
| 20260503174528 | 64 | 171 | 5.2 | 8.7 | 0.00 | 0.00 | 0.00 | 75 | 1014.3 |
| 20260503173028 | 64 | 157 | 4.3 | 9.6 | 0.00 | 0.00 | 0.00 | 73 | 1014.3 |
| 20260503171526 | 64 | 188 | 4.3 | 8.7 | 0.00 | 0.00 | 0.00 | 72 | 1014.4 |
| 20260503081509 | 61 | 182 | 0.9 | 5.2 | 0.00 | 0.00 | 0.00 | 80 | 1015.3 |
| 20260503071535 | 60 | 184 | 0.9 | 5.2 | 0.00 | 0.00 | 0.00 | 81 | 1015.2 |
| 20260503054526 | 58 | 176 | 1.7 | 3.5 | 0.00 | 0.00 | 0.00 | 85 | 1014.8 |
| 20260503053016 | 58 | 163 | 0.9 | 3.5 | 0.00 | 0.00 | 0.00 | 84 | 1014.7 |
| 20260503051526 | 58 | 172 | 0.9 | 2.6 | 0.00 | 0.00 | 0.00 | 85 | 1014.6 |
| 20260503050028 | 58 | 172 | 0.9 | 3.5 | 0.00 | 0.00 | 0.00 | 85 | 1014.7 |
| 20260503044529 | 58 | 186 | 1.7 | 2.6 | 0.00 | 0.00 | 0.00 | 85 | 1014.7 |
| 20260503043019 | 59 | 201 | 1.7 | 5.2 | 0.00 | 0.00 | 0.00 | 85 | 1014.7 |
| 20260503041524 | 58 | 173 | 0.9 | 3.5 | 0.00 | 0.00 | 0.00 | 85 | 1014.9 |
| 20260503040024 | 58 | 183 | 1.7 | 2.6 | 0.00 | 0.00 | 0.00 | 85 | 1014.8 |
| 20260503034528 | 59 | 183 | 1.7 | 4.3 | 0.00 | 0.00 | 0.00 | 85 | 1014.9 |
| 20260503033023 | 58 | 166 | 0.9 | 4.3 | 0.00 | 0.00 | 0.00 | 85 | 1014.9 |
| 20260503031523 | 58 | 176 | 0.9 | 4.3 | 0.00 | 0.00 | 0.00 | 85 | 1015.0 |
| 20260503030025 | 58 | 176 | 2.6 | 3.5 | 0.00 | 0.00 | 0.00 | 85 | 1015.1 |
| 20260503024526 | 59 | 186 | 1.7 | 2.6 | 0.00 | 0.00 | 0.00 | 85 | 1015.1 |
| 20260503023025 | 59 | 180 | 1.7 | 4.3 | 0.00 | 0.00 | 0.00 | 85 | 1015.1 |
| 20260503021518 | 59 | 181 | 0.9 | 4.3 | 0.00 | 0.00 | 0.00 | 85 | 1015.2 |
| 20260503020024 | 59 | 179 | 2.6 | 3.5 | 0.00 | 0.00 | 0.00 | 86 | 1015.3 |
| 20260503014524 | 59 | 184 | 1.7 | 4.3 | 0.00 | 0.00 | 0.00 | 86 | 1015.3 |
| 20260503013026 | 59 | 186 | 3.5 | 6.1 | 0.00 | 0.00 | 0.00 | 87 | 1015.5 |
| 20260503011529 | 59 | 186 | 2.6 | 3.5 | 0.00 | 0.00 | 0.00 | 87 | 1015.7 |
| 20260503010025 | 59 | 175 | 1.7 | 4.3 | 0.00 | 0.00 | 0.00 | 87 | 1015.7 |
| 20260503004507 | 59 | 183 | 1.7 | 3.5 | 0.00 | 0.00 | 0.00 | 88 | 1015.8 |
| 20260503003027 | 59 | 187 | 1.7 | 5.2 | 0.00 | 0.00 | 0.00 | 88 | 1016.1 |
| 20260503001527 | 60 | 174 | 1.7 | 4.3 | 0.00 | 0.00 | 0.00 | 88 | 1016.1 |
| 20260503000017 | 60 | 178 | 2.6 | 5.2 | 0.00 | 0.00 | 0.00 | 88 | 1016.3 |
| 20260502234533 | 60 | 194 | 2.6 | 5.2 | 0.00 | 0.00 | 0.00 | 89 | 1016.2 |
| 20260502233006 | 60 | 184 | 1.7 | 6.1 | 0.00 | 0.00 | 0.00 | 89 | 1016.4 |
| 20260502231511 | 60 | 184 | 2.6 | 6.1 | 0.00 | 0.00 | 0.00 | 89 | 1016.5 |
| 20260502230022 | 60 | 186 | 2.6 | 4.3 | 0.00 | 0.00 | 0.00 | 89 | 1016.5 |
| 20260502224521 | 60 | 181 | 1.7 | 6.1 | 0.00 | 0.00 | 0.00 | 89 | 1016.5 |
| 20260502223014 | 61 | 180 | 4.3 | 7.8 | 0.00 | 0.00 | 0.00 | 89 | 1016.4 |
| 20260502221508 | 61 | 167 | 3.5 | 8.7 | 0.00 | 0.00 | 0.00 | 89 | 1016.4 |
| 20260502220016 | 61 | 216 | 4.3 | 8.7 | 0.00 | 0.00 | 0.00 | 89 | 1016.5 |
| 20260502214519 | 61 | 176 | 4.3 | 7.8 | 0.00 | 0.00 | 0.00 | 89 | 1016.4 |
| 20260502213026 | 61 | 186 | 4.3 | 7.8 | 0.00 | 0.00 | 0.00 | 88 | 1016.3 |
| 20260502211516 | 61 | 172 | 3.5 | 8.7 | 0.00 | 0.00 | 0.00 | 88 | 1016.4 |
| 20260502210014 | 61 | 175 | 1.7 | 7.8 | 0.00 | 0.00 | 0.00 | 88 | 1016.3 |
| 20260502204518 | 61 | 176 | 3.5 | 7.8 | 0.00 | 0.00 | 0.00 | 89 | 1016.1 |
| 20260502203026 | 62 | 153 | 5.2 | 8.7 | 0.00 | 0.00 | 0.00 | 89 | 1016.0 |
| 20260502201527 | 62 | 157 | 5.2 | 7.8 | 0.00 | 0.00 | 0.00 | 89 | 1015.9 |
| 20260502200012 | 62 | 161 | 3.5 | 7.0 | 0.00 | 0.00 | 0.00 | 89 | 1015.7 |
| 20260502194515 | 62 | 141 | 3.5 | 7.0 | 0.00 | 0.00 | 0.00 | 89 | 1015.6 |
| 20260502193020 | 62 | 138 | 4.3 | 7.0 | 0.00 | 0.00 | 0.00 | 88 | 1015.6 |
| 20260502191523 | 62 | 122 | 3.5 | 7.0 | 0.00 | 0.00 | 0.00 | 87 | 1015.6 |
| 20260502190027 | 62 | 161 | 4.3 | 7.0 | 0.00 | 0.00 | 0.00 | 86 | 1015.6 |
| 20260502184515 | 62 | 121 | 3.5 | 7.8 | 0.00 | 0.00 | 0.00 | 85 | 1015.6 |